www.pogodaiklimat.ru
ПОГОДА в Белград Батайнице

Архив погоды в Белград Батайнице (Сербия)

Время
(UTC), дата
13 11.05
14 11.05
15 11.05
16 11.05
17 11.05
18 11.05
19 11.05
20 11.05
21 11.05
22 11.05
23 11.05
00 12.05
01 12.05
02 12.05
03 12.05
04 12.05
05 12.05
06 12.05
07 12.05
08 12.05
09 12.05
10 12.05
11 12.05
12 12.05
13 12.05
14 12.05
15 12.05
16 12.05
17 12.05
18 12.05
19 12.05
20 12.05
21 12.05
22 12.05
23 12.05
00 13.05
01 13.05
02 13.05
03 13.05
04 13.05
05 13.05
06 13.05
07 13.05
08 13.05
09 13.05
10 13.05
11 13.05
12 13.05
13 13.05
14 13.05
15 13.05
16 13.05
17 13.05
18 13.05
19 13.05
20 13.05
21 13.05
22 13.05
23 13.05
00 14.05
01 14.05
02 14.05
03 14.05
04 14.05
05 14.05
06 14.05
07 14.05
08 14.05
09 14.05
10 14.05
11 14.05
12 14.05
13 14.05
14 14.05
15 14.05
16 14.05
17 14.05
18 14.05
19 14.05
20 14.05
21 14.05
22 14.05
23 14.05
00 15.05
01 15.05
02 15.05
03 15.05
04 15.05
05 15.05
06 15.05
07 15.05
08 15.05
09 15.05
10 15.05
11 15.05
12 15.05
13 15.05
14 15.05
15 15.05
16 15.05
17 15.05
18 15.05
19 15.05
20 15.05
21 15.05
22 15.05
23 15.05
00 16.05
01 16.05
02 16.05
03 16.05
04 16.05
05 16.05
06 16.05
07 16.05
08 16.05
09 16.05
10 16.05
11 16.05
12 16.05
13 16.05
14 16.05
15 16.05
16 16.05
17 16.05
18 16.05
19 16.05
20 16.05
21 16.05
22 16.05
23 16.05
00 17.05
01 17.05
02 17.05
03 17.05
04 17.05
05 17.05
06 17.05
07 17.05
08 17.05
09 17.05
10 17.05
11 17.05
12 17.05
13 17.05
14 17.05
15 17.05
16 17.05
17 17.05
18 17.05
19 17.05
20 17.05
21 17.05
22 17.05
23 17.05
00 18.05
01 18.05
02 18.05
03 18.05
04 18.05
05 18.05
06 18.05
07 18.05
08 18.05
09 18.05
10 18.05
11 18.05
12 18.05
23 30.05
Ветер
(напр.,м/с)
Видим. Явления Облачность Т
(С)
Тd
(С)
f
(%)
Тe
(С)
Тes
(С)
Комфортность P
(гПа)
Po
(гПа)
Тmin
(С)
Tmax
(С)
R
(мм)
R24
(мм)
S
(см)
нст 1 10 км ясно +23.0 +7.0 36 +24 +39 комфорт 1018.0 1008.9
нст 1 10 км ясно +24.0 +7.0 34 +24 +35 комфорт 1017.0 1007.9
С 3 10 км ясно +24.0 +5.0 29 +24 +28 комфорт 1017.0 1007.9
С 2 10 км ясно +24.0 +6.0 31 +24 +26 комфорт 1016.0 1007.0
С 6 10 км ясно +22.0 +8.0 41 +23 +23 комфорт 1017.0 1007.9
С 3 10 км ясно +19.0 +9.0 52 +20 +20 1017.0 1007.8
С 2 10 км ясно +18.0 +9.0 56 +19 +19 1017.0 1007.8
С 2 10 км ясно +17.0 +10.0 63 +17 +17 1017.0 1007.7
С 2 10 км ясно +17.0 +11.0 68 +17 +17 1017.0 1007.7
С 1 10 км ясно +16.0 +10.0 68 +17 +17 1018.0 1008.7
нст 1 10 км ясно +16.0 +10.0 68 +17 +17 1018.0 1008.7
ЮЗ 2 10 км ясно +15.0 +12.0 82 +15 +15 1017.0 1007.7
З 1 10 км ясно +15.0 +11.0 77 +16 +16 1017.0 1007.7
штиль 0 10 км ясно +14.0 +12.0 88 +14 +14 1017.0 1007.6
нст 1 10 км ясно +14.0 +12.0 88 +14 +14 1017.0 1007.6
СВ 2 10 км ясно +15.0 +12.0 82 +15 +15 1017.0 1007.7
Ю 1 10 км ясно +15.0 +13.0 88 +15 +18 1017.0 1007.7
В 3 10 км ясно +15.0 +12.0 82 +14 +18 1018.0 1008.7
С 8 10 км 5/5 900 м +16.0 +13.0 82 +14 +15 1018.0 1008.7
СВ 4 н/о ливневой дождь 8/8 990 м
[Cb]
+14.0 +13.0 94 +12 +14 1019.0 1009.6
ЮЗ 2 10 км 2/2 1410 м +15.0 +13.0 88 +15 +27 опасность простуды 1019.0 1009.7
нст 1 10 км ясно +18.0 +14.0 77 +19 +40 опасность простуды 1019.0 1009.8
нст 1 10 км ясно +19.0 +13.0 68 +21 +42 комфорт 1018.0 1008.8
В 2 10 км ясно +20.0 +13.0 64 +22 +39 комфорт 1018.0 1008.8
нст 1 10 км 2/2 1200 м +21.0 +12.0 56 +24 +37 комфорт 1017.0 1007.9
С 8-13 10 км 8/8 990 м +22.0 +12.0 53 +24 +25 комфорт 1017.0 1007.9
СЗ 8-13 10 км гроза, ливневой дождь 8/8 900 м
[Cb]
+18.0 +13.0 73 +17 +17 1017.0 1007.8
З 3 10 км 2/2 990 м +18.0 +14.0 77 +18 +20 1017.0 1007.8
З 4 10 км ясно +16.0 +13.0 82 +15 +16 1017.0 1007.7
З 1 10 км ясно +14.0 +13.0 94 +14 +14 1018.0 1008.6
нст 1 10 км ясно +13.0 +13.0 100 +13 +13 1018.0 1008.6
СЗ 1 10 км ясно +12.0 +12.0 100 +12 +12 1018.0 1008.6
Ю 1 н/о туман, небо видно ясно +11.0 +11.0 100 +11 +11 1018.0 1008.5
штиль 0 н/о туман, небо видно ясно +11.0 +11.0 100 +10 +10 1019.0 1009.5
нст 1 н/о дымка ясно +10.0 +10.0 100 +9 +9 1018.0 1008.5
З 1 н/о туман, небо видно ясно +9.0 +9.0 100 +8 +8 1018.0 1008.5
С 2 н/о дымка ясно +8.0 +8.0 100 +6 +6 1018.0 1008.4
СЗ 1 н/о ясно +7.0 +7.0 100 +6 +6 1018.0 1008.4
нст 1 10 км ясно +5.0 +5.0 100 +3 +3 1019.0 1009.3
СВ 1 10 км ясно +6.0 +5.0 93 +5 +5 1019.0 1009.3
нст 1 10 км ясно +10.0 +8.0 87 +10 +12 1019.0 1009.5
нст 1 10 км ясно +12.0 +7.0 71 +12 +18 1019.0 1009.5
нст 1 10 км ясно +15.0 +8.0 63 +16 +26 1019.0 1009.6
нст 1 10 км ясно +17.0 +10.0 63 +18 +32 опасность простуды 1019.0 1009.7
нст 1 10 км ясно +19.0 +8.0 49 +21 +39 комфорт 1019.0 1009.8
нст 1 10 км ясно +20.0 +7.0 43 +22 +43 комфорт 1018.0 1008.8
С 3 10 км ясно +22.0 +4.0 31 +22 +37 комфорт 1018.0 1008.9
С 2 10 км ясно +22.0 +5.0 33 +22 +39 комфорт 1017.0 1007.9
С 2 10 км ясно +22.0 +7.0 38 +23 +36 комфорт 1017.0 1007.9
С 2 10 км ясно +23.0 +7.0 36 +24 +33 комфорт 1016.0 1006.9
СВ 3 10 км ясно +22.0 +5.0 33 +22 +27 комфорт 1015.0 1005.9
В 2 10 км ясно +22.0 +5.0 33 +22 +25 комфорт 1015.0 1005.9
В 2 10 км ясно +21.0 +5.0 35 +22 +23 комфорт 1015.0 1005.9
В 2 10 км ясно +18.0 +7.0 49 +19 +19 1015.0 1005.8
В 2 10 км ясно +16.0 +7.0 55 +16 +16 1015.0 1005.7
штиль 0 10 км ясно +13.0 +8.0 72 +13 +13 1015.0 1005.6
В 1 10 км ясно +13.0 +7.0 67 +13 +13 1015.0 1005.6
нст 1 10 км ясно +11.0 +8.0 82 +11 +11 1014.0 1004.6
ЮВ 1 10 км ясно +10.0 +7.0 82 +10 +10 1014.0 1004.5
нст 1 10 км ясно +10.0 +7.0 82 +10 +10 1014.0 1004.5
ЮВ 1 10 км ясно +9.0 +8.0 93 +8 +8 1014.0 1004.5
нст 1 10 км ясно +8.0 +8.0 100 +7 +7 1013.0 1003.5
нст 1 10 км ясно +10.0 +9.0 93 +9 +9 1013.0 1003.5
В 3 10 км ясно +12.0 +9.0 82 +10 +11 1013.0 1003.6
В 2 10 км ясно +13.0 +10.0 82 +12 +14 1013.0 1003.6
В 4 10 км ясно +16.0 +10.0 68 +15 +18 1013.0 1003.7
В 4 10 км ясно +17.0 +10.0 63 +17 +22 1014.0 1004.8
В 4 10 км ясно +18.0 +11.0 64 +18 +26 1014.0 1004.8
В 2 10 км ясно +18.0 +10.0 59 +19 +34 опасность простуды 1014.0 1004.8
Ю 3 10 км ясно +19.0 +10.0 56 +20 +35 опасность простуды 1014.0 1004.8
З 3 10 км ясно +17.0 +13.0 77 +17 +32 опасность простуды 1014.0 1004.8
З 3 10 км ясно +17.0 +13.0 77 +17 +31 опасность простуды 1014.0 1004.8
ЮЗ 2 10 км 2/2 1410 м +18.0 +11.0 64 +19 +29 1014.0 1004.8
З 2 10 км слаб. дождь 5/5 1200 м
[Ns]
+18.0 +12.0 68 +19 +23 1014.0 1004.8
нст 1 10 км 2/2 1200 м +18.0 +11.0 64 +19 +25 1013.0 1003.8
Ю 2 10 км 2/2 1350 м +18.0 +9.0 56 +19 +21 1013.0 1003.8
ЮЗ 4 10 км ясно +16.0 +14.0 88 +15 +16 1014.0 1004.7
Ю 3 10 км ясно +15.0 +13.0 88 +14 +14 1014.0 1004.7
Ю 3 10 км ясно +14.0 +13.0 94 +13 +13 1015.0 1005.7
Ю 2 10 км ясно +13.0 +12.0 94 +12 +12 1015.0 1005.6
С 2 10 км ясно +13.0 +12.0 94 +12 +12 1015.0 1005.6
С 1 10 км ясно +13.0 +12.0 94 +13 +13 1015.0 1005.6
В 1 10 км ясно +12.0 +12.0 100 +12 +12 1015.0 1005.6
ЮВ 2 10 км ясно +11.0 +11.0 100 +10 +10 1015.0 1005.6
В 3 10 км ясно +12.0 +10.0 88 +10 +10 1015.0 1005.6
В 2 10 км ясно +11.0 +11.0 100 +10 +10 1015.0 1005.6
В 3 10 км ясно +11.0 +11.0 100 +9 +9 1015.0 1005.6
В 2 10 км ясно +11.0 +11.0 100 +10 +10 1015.0 1005.6
В 4 10 км ясно +13.0 +12.0 94 +11 +12 1015.0 1005.6
В 7 10 км 2/2 600 м +15.0 +11.0 77 +13 +14 1015.0 1005.7
В 9 10 км 2/2 990 м +16.0 +9.0 63 +14 +15 1016.0 1006.7
В 8 10 км ясно +17.0 +9.0 59 +16 +18 1016.0 1006.7
В 9 10 км ясно +18.0 +9.0 56 +17 +19 1016.0 1006.8
ЮВ 9 10 км 2/2 1200 м +18.0 +9.0 56 +17 +18 1016.0 1006.8
ЮВ 7-12 10 км ясно +19.0 +10.0 56 +19 +24 1016.0 1006.8
ЮВ 8 10 км ясно +19.0 +10.0 56 +19 +22 1015.0 1005.8
В 7 10 км ясно +19.0 +10.0 56 +19 +23 1015.0 1005.8
ЮВ 8 10 км ясно +19.0 +10.0 56 +19 +21 1015.0 1005.8
В 7 10 км ясно +19.0 +10.0 56 +19 +21 1015.0 1005.8
ЮВ 8 10 км 5/5 1290 м +18.0 +10.0 59 +17 +17 1015.0 1005.8
В 7 10 км 5/5 1290 м +18.0 +10.0 59 +17 +17 1015.0 1005.8
ЮВ 5 10 км 2/2 1290 м +16.0 +9.0 63 +15 +15 1015.0 1005.7
В 4 10 км ясно +15.0 +9.0 67 +14 +14 1016.0 1006.7
В 3 10 км ясно +14.0 +9.0 72 +13 +13 1016.0 1006.6
В 3 10 км ясно +13.0 +9.0 77 +12 +12 1016.0 1006.6
В 4 10 км ясно +13.0 +9.0 77 +11 +11 1016.0 1006.6
В 3 10 км ясно +13.0 +9.0 77 +12 +12 1016.0 1006.6
В 4 10 км ясно +13.0 +10.0 82 +11 +11 1015.0 1005.6
В 4 10 км ясно +12.0 +10.0 88 +10 +10 1015.0 1005.6
ЮВ 4 10 км ясно +13.0 +10.0 82 +11 +11 1015.0 1005.6
ЮВ 4 10 км ясно +13.0 +10.0 82 +11 +11 1015.0 1005.6
ЮВ 5 10 км ясно +14.0 +10.0 77 +12 +12 1015.0 1005.7
В 6 10 км ясно +14.0 +10.0 77 +12 +13 1015.0 1005.7
ЮВ 6 10 км ясно +16.0 +10.0 68 +15 +17 1015.0 1005.7
ЮВ 9 10 км ясно +17.0 +10.0 63 +16 +16 1015.0 1005.8
ЮВ 9 10 км ясно +18.0 +10.0 59 +17 +18 1015.0 1005.8
ЮВ 11 10 км ясно +20.0 +10.0 53 +20 +21 1015.0 1005.8
ЮВ 10 10 км ясно +20.0 +11.0 56 +21 +22 комфорт 1015.0 1005.9
ЮВ 10 10 км ясно +21.0 +11.0 53 +22 +23 комфорт 1014.0 1004.9
ЮВ 11-15 10 км ясно +21.0 +11.0 53 +22 +23 комфорт 1013.0 1003.9
ЮВ 10 10 км ясно +22.0 +12.0 53 +24 +25 комфорт 1013.0 1003.9
ЮВ 10 10 км ясно +20.0 +11.0 56 +21 +21 комфорт 1012.0 1002.9
ЮВ 11 10 км 2/2 1200 м +20.0 +11.0 56 +21 +21 комфорт 1012.0 1002.9
ЮВ 11 10 км 2/2 1200 м +18.0 +10.0 59 +17 +17 1012.0 1002.8
ЮВ 9 10 км слаб. дождь 5/5 1200 м
[Ns]
+15.0 +12.0 82 +13 +13 1013.0 1003.7
В 8 10 км слаб. дождь 5/5 1200 м
[Ns]
+14.0 +12.0 88 +11 +11 1013.0 1003.7
В 8 10 км 5/5 1200 м +14.0 +12.0 88 +11 +11 1013.0 1003.7
ЮВ 9 10 км 2/2 1200 м +14.0 +12.0 88 +11 +11 1012.0 1002.7
ЮВ 10 10 км ясно +15.0 +12.0 82 +13 +13 1012.0 1002.7
ЮВ 9 10 км ясно +15.0 +12.0 82 +13 +13 1011.0 1001.7
ЮВ 8 10 км ясно +15.0 +11.0 77 +13 +13 1011.0 1001.7
ЮВ 10 10 км ясно +15.0 +11.0 77 +13 +13 1010.0 1000.7
ЮВ 9 10 км ясно +15.0 +10.0 72 +13 +13 1010.0 1000.7
ЮВ 10 10 км ясно +15.0 +10.0 72 +13 +13 1010.0 1000.7
ЮВ 10 10 км ясно +15.0 +10.0 72 +13 +13 1010.0 1000.7
ЮВ 9 10 км ясно +15.0 +11.0 77 +13 +13 1010.0 1000.7
ЮВ 10 10 км ясно +15.0 +11.0 77 +13 +13 1010.0 1000.7
ЮВ 9 10 км ясно +16.0 +11.0 72 +14 +15 1011.0 1001.8
ЮВ 10 10 км ясно +18.0 +12.0 68 +17 +17 1011.0 1001.8
ЮВ 10 10 км ясно +18.0 +12.0 68 +17 +17 1011.0 1001.8
ЮВ 9 10 км ясно +20.0 +13.0 64 +21 +23 комфорт 1011.0 1001.9
ЮВ 8 10 км ясно +21.0 +13.0 60 +23 +26 комфорт 1012.0 1002.9
ЮВ 7 10 км ясно +22.0 +14.0 60 +25 +30 комфорт 1012.0 1003.0
ЮВ 7 10 км ясно +23.0 +14.0 57 +26 +31 жарко 1011.0 1002.0
ЮВ 8 10 км ясно +23.0 +14.0 57 +26 +29 жарко 1011.0 1002.0
В 8 10 км ясно +22.0 +13.0 57 +25 +27 комфорт 1011.0 1002.0
В 7 10 км ясно +22.0 +13.0 57 +25 +26 комфорт 1011.0 1002.0
В 8 10 км ясно +21.0 +12.0 56 +23 +23 комфорт 1011.0 1001.9
В 6 10 км ясно +18.0 +11.0 64 +17 +18 1012.0 1002.8
В 6 10 км ясно +16.0 +10.0 68 +15 +15 1012.0 1002.8
В 5 10 км ясно +16.0 +10.0 68 +15 +15 1013.0 1003.7
В 5 10 км ясно +15.0 +11.0 77 +14 +14 1013.0 1003.7
В 2 10 км ясно +15.0 +11.0 77 +15 +15 1013.0 1003.7
В 2 10 км ясно +14.0 +11.0 82 +13 +13 1014.0 1004.7
нст 1 10 км ясно +14.0 +12.0 88 +14 +14 1014.0 1004.7
ЮВ 3 10 км слаб. дождь 2/2 1200 м
[Ns]
+15.0 +13.0 88 +14 +14 1014.0 1004.7
нст 1 10 км ясно +14.0 +14.0 100 +14 +14 1014.0 1004.7
Ю 1 н/о туман, небо видно ясно +13.0 +13.0 100 +13 +13 1014.0 1004.6
СВ 1 н/о туман, небо видно ясно +11.0 +11.0 100 +11 +11 1015.0 1005.6
ЮВ 1 н/о дымка ясно +11.0 +11.0 100 +11 +11 1015.0 1005.6
ЮВ 2 10 км ясно +14.0 +14.0 100 +13 +15 1016.0 1006.7
Ю 2 10 км ясно +17.0 +15.0 88 +17 +22 1016.0 1006.8
ЮЗ 1 10 км ясно +19.0 +16.0 83 +21 +32 комфорт 1016.0 1006.8
ЮВ 1 10 км ясно +21.0 +14.0 64 +25 +40 комфорт 1016.0 1006.9
нст 1 10 км 2/2 1200 м +23.0 +12.0 50 +26 +41 жарко 1016.0 1006.9
З 2 10 км 2/2 1380 м +24.0 +12.0 47 +26 +40 жарко 1016.0 1007.0
В 1 10 км ясно +25.0 +12.0 44 +27 +48 жарко 1015.0 1006.0
ЮЗ 3 10 км ясно +26.0 +11.0 39 +27 +41 жарко 1015.0 1006.0
В 4 10 км ясно +14.0 +8.0 67 +13 +13 1019.0 1009.6
Местоположение метеостанции Белград Батайница (Сербия): широта 44.94 долгота 20.26 высота над уровнем моря 78 м.
В архиве по умолчанию представлена погода в Белград Батайнице за последнюю неделю. Архивные данные за месяц целиком и за предыдущие месяцы, начиная с января 2011 года, Вы можете получить, выбрав интересующий диапазон дат из раскрывающегося списка и нажав кнопку "Найти!".
*Определитесь, кто Вы:
Внимание! Время в таблицах - всемирное. Для получения местного времени необходимо прибавить поправку, которая равна 1 ч.
Некоторые строки с данными для отдельных станций могут быть выделены курсивом. Это означает, что фактические данные отсутствуют по различным причинам, а приведенные значения являются расчетными модельными данными для данного пункта наблюдений.
Смотрите также архив погоды в соседних городах и на ближайших метеорологических станциях:
Партнеры нашего сайта:      
Пояснения к столбцам:
  • Ветер - указаны скорость ветра в м/с - средняя за 10 мин, порывы в срок и между сроками (в фигурных скобках) и направление, откуда дует ветер: С - северный,
  • СВ - северо-восточный, В - восточный, ЮВ - юго-восточный, Ю - южный, ЮЗ - юго-западный, З - западный, СЗ - северо-западный.
  • Видимость - горизонтальная дальность видимости в метрах или километрах. При видимости от 1 до 10 км при отсутствии осадков обычно наблюдается дымка, при ухудшении видимости до 1 км и менее - туман. В сухую погоду видимость может ухудшаться дымом, пылью или мглою.
  • Явления - указаны атмосферные явления, наблюдавшиеся в срок или в последний час перед сроком; фигурными скобками обозначены явления, наблюдавшиеся между сроками (за 1-3 часа до срока); квадратными скобками обозначены град или гололедные отложения с указанием их диаметра в мм.
  • Облачность - указаны через наклонную черту общая и нижняя облачность в баллах и высота нижней границы облаков в метрах; квадратными скобками обозначены формы облаков: Ci - перистые, Cs - перисто-слоистые, Cc - перисто-кучевые, Ac - высококучевые, As - высокослоистые, Sc - слоисто-кучевые, Ns - слоисто-дождевые, Cu - кучевые, Cb - кучево-дождевые. Подробнее классификацию облаков см. в Атласе облаков (PDF).
  • T - Температура воздуха - температура, измеренная на высоте 2 м над землей.
  • Td - Температура точки росы - температура, при понижении до которой содержащийся в воздухе водяной пар достигнет насыщения.
  • f - Относительная влажность воздуха - влажноcть воздуха, измеренная на высоте 2 м над землей.
  • Te - Эффективная температура - температура, которую ощущает одетый по сезону человек в тени. Характеристика душности погоды. При расчете учитывается влияние влажности воздуха и скорости ветра на теплоощущения человека.
  • Tes - Эффективная температура на солнце - температура, которую ощущает человек, с поправкой на солнечный нагрев. Характеристика знойности погоды. Зависит от высоты солнца над горизонтом, облачности и скорости ветра. Ночью, в пасмурную погоду, а также при ветре 12 м/с и более поправка равна нулю.
  • P - Атмосферное давление - приведенное к уровню моря атмосферное давление.
  • Po - Атмосферное давление - измеренное на уровне метеостанции атмосферное давление.
  • Tmin - Минимальная температура - минимум температуры воздуха на высоте 2 м над землей.
  • Tmax - Максимальная температура - максимум температуры воздуха на высоте 2 м над землей.
  • R - Количество осадков - Количество выпавших осадков за период времени, мм. При наведении курсора мыши на число - период времени, за который выпало указанное количество осадков.
  • R24 - Количество осадков - Количество выпавших осадков за 24 часа, мм.
  • S - Снежный покров - Высота снежного покрова, см. При наведении курсора мыши на число - состояние снежного покрова и степень покрытия местности в баллах.